Regional Weather Roundup
Issued by NWS

Home | Current Version | Previous Version | Text Only | Print | Product List | Glossary Off
Versions: 1 2 3 4 5 6 7 8 9 10 11 12 13 14 15 16 17 18 19 20 21 22 23 24 25 26 27 28 29 30 31 32 33 34 35 36 37 38 39 40 41 42 43 44 45 46 47 48 49 50

000
ASUS43 KOAX 230102
RWRNE

WEATHER ROUNDUP FOR NEBRASKA
NATIONAL WEATHER SERVICE OMAHA NE
800 PM CDT SAT APR 22 2017

NOTES: SATELLITE DATA IS BEING USED TO AUGMENT CLOUD COVER ABOVE
       12000 FEET.
       "FAIR" INDICATES FEW OR NO CLOUDS BELOW 12,000 FEET WITH NO
       SIGNIFICANT WEATHER AND/OR OBSTRUCTIONS TO VISIBILITY.

  * THESE STATIONS DO NOT REPORT WEATHER SUCH AS RAIN...SNOW OR FOG.

NEZ001>004-019>022-054>056-230200-
NEBRASKA PANHANDLE

CITY           SKY/WX    TMP DP  RH WIND       PRES   REMARKS
SCOTTSBLUFF    CLEAR     59  27  29 SW13      30.16F
ALLIANCE       CLEAR     56  30  37 S9        30.16F
CHADRON        CLEAR     61  31  32 S10       30.10F
KIMBALL        CLEAR     54  32  43 S9        30.21F
SIDNEY         CLEAR     51  35  54 S9        30.21F
$$

NEZ057>060-069>072-079>082-230200-
SOUTHWEST NEBRASKA

CITY           SKY/WX    TMP DP  RH WIND       PRES   REMARKS
NORTH PLATTE   CLEAR     60  31  33 NW5       30.20F
IMPERIAL       CLEAR     55  31  39 SW7       30.22S
LEXINGTON      CLEAR     60  28  30 CALM      30.21S
MCCOOK         CLEAR     59  30  33 CALM      30.21S
OGALLALA       CLEAR     62  25  25 SW6       30.20S
$$

NEZ005>010-023>029-035>040-094-230200-
NORTH CENTRAL NEBRASKA

CITY           SKY/WX    TMP DP  RH WIND       PRES   REMARKS
VALENTINE      CLEAR     64  22  20 S10       30.15F
AINSWORTH      CLEAR     59  33  38 S7        30.17F
BROKEN BOW     CLEAR     59  32  36 SE7       30.19F
O`NEILL        CLEAR     61  33  34 SE3       30.19S
ORD            CLEAR     61  25  25 CALM      30.18F
THEDFORD       CLEAR     62  26  25 S3        30.19S
$$

NEZ041-046>049-061>064-073>077-083>087-230200-
SOUTH CENTRAL NEBRASKA

CITY           SKY/WX    TMP DP  RH WIND       PRES   REMARKS
GRAND ISLAND   CLEAR     60  30  32 N5        30.20F
AURORA         CLEAR     60  28  29 NE5       30.20S
HASTINGS       CLEAR     60  29  30 NE7       30.21S
HEBRON         CLEAR     60  30  31 NE8       30.19S
HOLDREGE       CLEAR     59  27  29 E3        30.20S
KEARNEY *      CLEAR     59  28  31 NE5       30.21S
YORK           CLEAR     59  30  33 NE6       30.20S
$$

NEZ011>018-030>034-042>045-230200-
NORTHEAST NEBRASKA

CITY           SKY/WX    TMP DP  RH WIND       PRES   REMARKS
NORFOLK        CLEAR     61  31  32 CALM      30.19S
ALBION         CLEAR     62  33  33 CALM      30.20S
BLAIR          CLEAR     62  34  34 N3        30.18S
FREMONT        CLEAR     63  32  32 NE3       30.19S
TEKAMAH        CLEAR     62  40  44 N5        30.18S
WAYNE          CLEAR     60  35  39 CALM      30.18F
$$

NEZ050>053-065>068-078-088>093-230200-
SOUTHEAST NEBRASKA

CITY           SKY/WX    TMP DP  RH WIND       PRES   REMARKS
LINCOLN        CLEAR     58  36  43 N8        30.20S
OMAHA EPPLEY   PTCLDY    63  32  31 NE7       30.17F
BEATRICE       CLEAR     59  36  42 N7        30.18S
FALLS CITY     CLEAR     59  31  34 NE6       30.15S
NEBRASKA CITY  CLEAR     61  21  21 N7        30.17R
PLATTSMOUTH    CLEAR     62  23  22 N3        30.17S
$$

NEZ044-045-051>053-067-230200-
OMAHA AREA

CITY           SKY/WX    TMP DP  RH WIND       PRES   REMARKS
OMAHA EPPLEY   PTCLDY    63  32  31 NE7       30.17F
BLAIR          CLEAR     62  34  34 N3        30.18S
FREMONT        CLEAR     63  32  32 NE3       30.19S
MILLARD        CLEAR     65  32  28 CALM      30.18S
OFFUTT AFB     CLEAR     62  29  29 N3        30.17S
PLATTSMOUTH    CLEAR     62  23  22 N3        30.17S
WAHOO          FAIR      60  32  34 NE5       30.19S
$$




USA.gov is the U.S. government's official web portal to all federal, state and local government web resources and services.